This is the latest recevied weather packets stored in our database for station/object KD7JB. If no packets are shown the sender has not sent any weather packets the latest 10 day(s).
| Time | Temp. | Humidity | Pressure | Rain* | Wind** | Luminosity | Snow |
|---|---|---|---|---|---|---|---|
| 1777589868 | 15.56° C | 38% | 1181.6 hPa | 0 mm | - | 501 W/m² | - |
| 1777589563 | 16.11° C | 38% | 1181.7 hPa | 0 mm | - | 489 W/m² | - |
| 1777589262 | 16.11° C | 40% | 1181.6 hPa | 0 mm | - | 511 W/m² | - |
| 1777588959 | 15.56° C | 40% | 1181.8 hPa | 0 mm | - | 543 W/m² | - |
| 1777588655 | 15.56° C | 40% | 1181.5 hPa | 0 mm | - | 562 W/m² | - |
| 1777588350 | 15.56° C | 39% | 1181.8 hPa | 0 mm | - | 575 W/m² | - |
| 1777588046 | 15.56° C | 39% | 1181.8 hPa | 0 mm | - | 570 W/m² | - |
| 1777587743 | 15.56° C | 39% | 1181.9 hPa | 0 mm | - | 596 W/m² | - |
| 1777587441 | 15.56° C | 39% | 1182 hPa | 0 mm | - | 602 W/m² | - |
| 1777587139 | 15.56° C | 40% | 1182 hPa | 0 mm | - | 610 W/m² | - |
| 1777586834 | 15° C | 40% | 1181.9 hPa | 0 mm | - | 617 W/m² | - |
| 1777586530 | 15° C | 40% | 1181.9 hPa | 0 mm | - | 629 W/m² | - |
| 1777586225 | 15.56° C | 39% | 1181.9 hPa | 0 mm | - | 642 W/m² | - |
| 1777585924 | 16.11° C | 37% | 1182.2 hPa | 0 mm | - | 642 W/m² | - |
| 1777585624 | 15.56° C | 38% | 1182 hPa | 0 mm | - | 659 W/m² | - |
| 1777585319 | 15.56° C | 39% | 1182.4 hPa | 0 mm | - | 663 W/m² | - |
| 1777585014 | 15° C | 39% | 1182.3 hPa | 0 mm | - | 666 W/m² | - |
| 1777584711 | 15° C | 34% | 1182 hPa | 0 mm | - | 684 W/m² | - |
| 1777584409 | 15.56° C | 36% | 1182.2 hPa | 0 mm | - | 677 W/m² | - |
| 1777584105 | 16.11° C | 36% | 1182.2 hPa | 0 mm | - | 692 W/m² | - |
| 1777583804 | 16.11° C | 36% | 1182.3 hPa | 0 mm | - | 694 W/m² | - |
| 1777583500 | 15.56° C | 34% | 1182.4 hPa | 0 mm | - | 708 W/m² | - |
| 1777583199 | 15.56° C | 37% | 1182.2 hPa | 0 mm | - | 709 W/m² | - |
| 1777582894 | 15° C | 37% | 1182.4 hPa | 0 mm | - | 725 W/m² | - |
| 1777582592 | 15.56° C | 38% | 1182.4 hPa | 0 mm | - | 738 W/m² | - |
* Rain latest hour (hover to see other rain measurements)
** Current wind speed in m/s (hover to see current wind gust speed)